GW6444 Weather Reports


Display with metric or nautical units.
time (UTC)temp
F
wind
direction
speed
MPH
gust
MPH
rain 1hr
in
rain 24hr
in
rain mn
in
humidity
%
barometer
mb
20260505130230 37 311 4.0 11.0 0.00 0.21 0.09 89 1013.9
20260505130202 37 202 7.0 11.0 0.00 0.21 0.09 88 1013.9
20260505130148 37 227 7.0 12.0 0.00 0.21 0.09 89 1013.9
20260505125024 37 281 5.0 9.0 0.00 0.21 0.09 89 1013.3
20260505124939 37 253 6.0 10.0 0.00 0.21 0.09 89 1013.3
20260505124837 37 251 6.0 10.0 0.01 0.21 0.09 89 1013.2
20260505124742 37 267 5.0 10.0 0.01 0.21 0.09 89 1013.2
20260505124648 37 221 4.0 10.0 0.01 0.21 0.09 89 1013.2
20260505124642 37 193 5.0 10.0 0.01 0.21 0.09 89 1013.2
20260505124432 37 240 5.0 10.0 0.01 0.21 0.09 89 1013.3
20260505124341 37 181 6.0 10.0 0.01 0.21 0.09 89 1013.3
20260505124238 37 232 5.0 10.0 0.01 0.21 0.09 89 1013.2
20260505124124 37 209 4.0 12.0 0.01 0.21 0.09 89 1013.2
20260505124039 37 294 5.0 12.0 0.01 0.21 0.09 89 1013.2
20260505123931 37 250 6.0 12.0 0.01 0.21 0.09 89 1013.2
20260505123824 37 251 7.0 14.0 0.01 0.21 0.09 89 1013.2
20260505123725 37 234 8.0 15.0 0.01 0.21 0.09 89 1013.0
20260505123645 37 267 6.0 15.0 0.01 0.21 0.09 89 1013.0
20260505123531 37 289 5.0 15.0 0.01 0.21 0.09 89 1013.0
20260505123440 37 196 6.0 15.0 0.02 0.21 0.09 89 1013.1
20260505123328 37 277 7.0 15.0 0.02 0.21 0.09 88 1013.1
20260505123241 37 247 6.0 15.0 0.02 0.21 0.09 88 1013.1
20260505123147 37 269 9.0 15.0 0.02 0.21 0.09 88 1013.0
20260505123132 37 281 11.0 15.0 0.02 0.21 0.09 88 1013.0
20260505122941 37 281 9.0 15.0 0.02 0.21 0.09 88 1013.1
20260505122837 37 269 6.0 14.0 0.03 0.21 0.09 88 1013.2
20260505122728 37 246 6.0 14.0 0.03 0.21 0.09 88 1013.1
20260505122629 37 290 7.0 14.0 0.03 0.21 0.09 88 1013.0
20260505122536 37 250 6.0 12.0 0.03 0.21 0.09 88 1013.1
20260505122440 37 187 7.0 12.0 0.04 0.21 0.09 87 1013.0
20260505122342 37 261 8.0 12.0 0.04 0.21 0.09 87 1013.0
20260505122247 37 200 7.0 12.0 0.04 0.21 0.09 88 1013.0
20260505122141 37 242 8.0 12.0 0.04 0.21 0.09 87 1013.0
20260505122019 38 252 6.0 11.0 0.04 0.21 0.09 88 1013.0
20260505121929 38 215 4.0 12.0 0.04 0.21 0.09 88 1013.1
20260505121834 38 286 5.0 12.0 0.04 0.21 0.09 88 1013.0
20260505121724 38 201 4.0 12.0 0.04 0.21 0.09 88 1013.0
20260505121659 38 272 3.0 12.0 0.04 0.21 0.09 88 1013.1
20260505121657 38 202 5.0 13.0 0.04 0.21 0.09 88 1013.0
20260505121419 38 243 6.0 13.0 0.04 0.21 0.09 87 1013.0
20260505121341 38 298 6.0 13.0 0.04 0.21 0.09 87 1013.0
20260505121228 38 204 6.0 13.0 0.04 0.21 0.09 87 1013.0
20260505121144 38 254 7.0 13.0 0.04 0.21 0.09 87 1013.0
20260505121037 38 219 7.0 16.0 0.04 0.21 0.09 87 1013.0
20260505120932 38 246 7.0 17.0 0.04 0.21 0.09 87 1013.0
20260505120818 39 324 7.0 17.0 0.04 0.21 0.09 88 1013.0
20260505120733 39 232 7.0 17.0 0.04 0.21 0.09 88 1012.9
20260505120644 39 258 6.0 17.0 0.04 0.21 0.09 88 1013.0
20260505120544 39 250 6.0 17.0 0.04 0.21 0.09 88 1012.9
20260505120428 39 239 6.0 17.0 0.04 0.21 0.09 88 1012.9
20260505120343 39 296 9.0 17.0 0.04 0.21 0.09 88 1012.8
20260505120242 39 233 10.0 17.0 0.04 0.21 0.09 87 1012.8
20260505120231 39 325 8.0 16.0 0.04 0.21 0.09 88 1012.8
20260505120205 39 218 9.0 16.0 0.04 0.21 0.09 88 1012.8
20260505115923 39 248 9.0 16.0 0.04 0.21 0.09 88 1012.8
20260505115833 39 234 8.0 16.0 0.04 0.21 0.09 88 1012.8
20260505115745 39 259 7.0 16.0 0.04 0.21 0.09 88 1012.7
20260505115633 39 278 7.0 16.0 0.04 0.21 0.09 88 1012.6
20260505115531 39 286 8.0 16.0 0.04 0.21 0.09 88 1012.6
20260505115441 39 259 9.0 16.0 0.04 0.21 0.09 88 1012.6
20260505115329 39 253 10.0 16.0 0.04 0.21 0.09 88 1012.6
20260505115221 39 272 10.0 16.0 0.04 0.21 0.09 88 1012.5
20260505115133 39 257 7.0 16.0 0.04 0.21 0.09 89 1012.7
20260505115043 39 288 7.0 19.0 0.04 0.21 0.09 88 1012.7
20260505114942 39 277 7.0 19.0 0.04 0.19 0.09 88 1012.7
20260505114826 39 271 6.0 19.0 0.04 0.19 0.09 88 1012.5
20260505114725 39 261 7.0 19.0 0.04 0.19 0.09 88 1012.6
20260505114723 39 268 8.0 19.0 0.04 0.19 0.09 87 1012.5
20260505114703 39 244 9.0 19.0 0.04 0.19 0.09 87 1012.6
20260505114424 39 299 10.0 19.0 0.04 0.19 0.09 87 1012.6
20260505114325 39 265 12.0 19.0 0.04 0.19 0.09 87 1012.6
20260505114224 39 317 12.0 19.0 0.04 0.19 0.09 86 1012.5
20260505114119 39 284 10.0 18.0 0.04 0.19 0.09 87 1012.5
20260505114023 39 225 11.0 17.0 0.04 0.19 0.09 87 1012.6
20260505113918 39 248 11.0 17.0 0.04 0.19 0.09 88 1012.5
20260505113834 39 265 10.0 17.0 0.04 0.19 0.09 88 1012.5
20260505113722 39 289 10.0 17.0 0.04 0.19 0.09 87 1012.4
20260505113630 39 327 11.0 17.0 0.04 0.19 0.09 88 1012.5
20260505113519 39 267 10.0 16.0 0.03 0.19 0.08 88 1012.5
20260505113436 39 284 10.0 16.0 0.03 0.19 0.08 88 1012.5
20260505113319 39 274 9.0 16.0 0.03 0.19 0.08 88 1012.5
20260505113224 39 219 7.0 22.0 0.04 0.19 0.08 88 1012.5
20260505113216 39 255 8.0 22.0 0.04 0.19 0.08 87 1012.5
20260505113200 39 300 9.0 22.0 0.04 0.19 0.08 87 1012.5
20260505112942 40 265 9.0 22.0 0.03 0.18 0.07 87 1012.5
20260505112825 40 287 8.0 22.0 0.03 0.18 0.07 87 1012.5
20260505112729 40 263 7.0 22.0 0.03 0.18 0.07 87 1012.5
20260505112618 40 308 8.0 22.0 0.03 0.18 0.07 87 1012.4
20260505112526 40 284 11.0 22.0 0.02 0.17 0.06 87 1012.3
20260505112429 40 288 11.0 22.0 0.02 0.17 0.06 87 1012.4
20260505112331 40 299 11.0 22.0 0.02 0.17 0.06 87 1012.5
20260505112229 40 275 9.0 15.0 0.01 0.16 0.04 87 1012.4
20260505112119 40 240 10.0 15.0 0.01 0.16 0.04 87 1012.4
20260505112022 40 283 7.0 15.0 0.01 0.16 0.04 87 1012.3
20260505111922 40 277 6.0 15.0 0.01 0.16 0.04 87 1012.3
20260505111833 40 310 6.0 15.0 0.02 0.16 0.04 87 1012.3
20260505111728 40 245 5.0 15.0 0.02 0.16 0.04 87 1012.3
20260505111722 40 215 5.0 15.0 0.02 0.16 0.04 87 1012.3
20260505111659 40 243 6.0 15.0 0.02 0.16 0.04 87 1012.3
20260505111441 40 275 8.0 15.0 0.02 0.16 0.04 87 1012.4
20260505111344 40 238 7.0 15.0 0.02 0.16 0.04 86 1012.4
20260505111223 40 250 6.0 13.0 0.02 0.16 0.04 87 1012.3
20260505111137 40 280 5.0 13.0 0.02 0.16 0.04 87 1012.2
20260505111032 40 246 5.0 13.0 0.02 0.16 0.04 87 1012.3
20260505110934 40 252 7.0 19.0 0.02 0.16 0.04 86 1012.2
20260505110821 40 286 7.0 19.0 0.03 0.16 0.04 86 1012.3
20260505110726 41 224 6.0 19.0 0.03 0.16 0.04 87 1012.2
20260505110636 41 267 6.0 19.0 0.03 0.16 0.04 87 1012.2
20260505110518 40 235 6.0 19.0 0.03 0.16 0.04 86 1012.2
20260505110423 40 269 6.0 19.0 0.03 0.16 0.04 86 1012.0
20260505110341 41 224 5.0 19.0 0.03 0.16 0.04 86 1012.1
20260505110239 41 268 9.0 19.0 0.03 0.16 0.04 86 1012.1
20260505110231 40 254 12.0 19.0 0.03 0.16 0.04 85 1012.0
20260505110158 41 268 13.0 19.0 0.04 0.16 0.04 86 1011.9
20260505102131 42 268 11.0 19.0 0.04 0.14 0.04 88 1010.9
20260505102040 43 281 8.0 17.0 0.04 0.14 0.04 88 1010.9
20260505101944 43 284 7.0 17.0 0.03 0.14 0.03 89 1010.9
20260505101839 43 270 7.0 17.0 0.03 0.14 0.03 89 1010.9
20260505101732 43 295 7.0 17.0 0.03 0.14 0.03 88 1010.9
20260505101724 43 240 10.0 17.0 0.03 0.14 0.03 88 1010.9
20260505101705 43 270 11.0 17.0 0.03 0.14 0.03 88 1010.9
20260505101442 43 286 10.0 17.0 0.03 0.14 0.03 88 1010.9
20260505101332 43 281 8.0 17.0 0.03 0.14 0.03 88 1010.9
20260505101224 43 280 6.0 17.0 0.03 0.14 0.03 89 1011.0
20260505101127 43 288 6.0 11.0 0.03 0.14 0.03 89 1010.9
20260505101043 43 236 7.0 16.0 0.03 0.14 0.03 89 1011.0
20260505100929 43 165 5.0 16.0 0.02 0.13 0.02 89 1010.9
20260505100844 43 178 4.0 16.0 0.02 0.13 0.02 89 1011.0
20260505100720 43 234 5.0 16.0 0.02 0.13 0.02 89 1010.9
20260505100634 43 195 6.0 16.0 0.02 0.13 0.02 89 1010.9
20260505100531 43 202 4.0 16.0 0.02 0.13 0.02 89 1010.9
20260505100438 43 283 3.0 16.0 0.02 0.13 0.02 89 1010.9
20260505100322 43 219 4.0 16.0 0.02 0.13 0.02 89 1010.9
20260505100235 43 217 8.0 16.0 0.02 0.13 0.02 89 1010.9
20260505100221 43 279 9.0 16.0 0.01 0.12 0.01 89 1010.8
20260505100157 43 202 7.0 14.0 0.01 0.12 0.01 89 1010.7
20260505095944 43 220 8.0 14.0 0.01 0.12 0.01 89 1010.8
20260505095829 43 281 8.0 14.0 0.01 0.12 0.01 89 1010.7
20260505095745 43 248 9.0 14.0 0.01 0.12 0.01 89 1010.7
20260505095638 43 254 7.0 14.0 0.01 0.12 0.01 89 1010.7
20260505095519 43 221 4.0 11.0 0.01 0.12 0.01 89 1010.8
20260505095440 43 231 4.0 14.0 0.01 0.12 0.01 89 1010.7
20260505095317 43 205 5.0 14.0 0.01 0.12 0.01 89 1010.7
20260505095234 43 204 4.0 14.0 0.01 0.12 0.01 89 1010.7
20260505095117 43 205 4.0 14.0 0.01 0.12 0.01 89 1010.9
20260505095038 43 202 5.0 14.0 0.01 0.12 0.01 89 1010.9
20260505094921 43 227 6.0 14.0 0.01 0.12 0.01 89 1010.9
20260505094829 43 215 7.0 14.0 0.01 0.12 0.01 89 1010.9
20260505094736 43 209 6.0 14.0 0.01 0.12 0.01 89 1010.8
20260505094726 43 207 5.0 14.0 0.01 0.12 0.01 89 1010.7
20260505094703 43 186 7.0 14.0 0.01 0.12 0.01 88 1010.9
20260505094423 43 196 7.0 14.0 0.01 0.12 0.01 88 1010.9
20260505094322 43 227 6.0 14.0 0.00 0.11 0.00 88 1010.8
20260505094244 43 221 6.0 14.0 0.00 0.11 0.00 88 1010.7
20260505094144 43 255 6.0 14.0 0.00 0.11 0.00 88 1010.7
20260505094020 44 221 6.0 14.0 0.00 0.11 0.00 88 1010.6
20260505093944 44 192 6.0 12.0 0.00 0.11 0.00 88 1010.7
20260505093821 44 183 7.0 12.0 0.00 0.11 0.00 88 1010.5
20260505093739 44 234 7.0 12.0 0.00 0.11 0.00 88 1010.5
20260505093643 44 219 7.0 14.0 0.00 0.11 0.00 88 1010.5
20260505093526 44 219 7.0 14.0 0.00 0.11 0.00 88 1010.4
20260505093418 44 225 5.0 13.0 0.00 0.11 0.00 88 1010.7
20260505093318 44 173 4.0 13.0 0.00 0.11 0.00 88 1010.6
20260505093219 44 249 4.0 13.0 0.00 0.11 0.00 88 1010.5
20260505093215 44 287 4.0 13.0 0.00 0.11 0.00 88 1010.6
20260505093156 44 217 5.0 17.0 0.00 0.11 0.00 88 1010.5
20260505092941 44 196 6.0 17.0 0.00 0.11 0.00 87 1010.6
20260505092823 44 171 6.0 17.0 0.00 0.11 0.00 87 1010.6
20260505092743 44 201 7.0 17.0 0.00 0.11 0.00 87 1010.6
20260505092616 44 178 6.0 17.0 0.00 0.11 0.00 87 1010.5
20260505092540 44 234 5.0 17.0 0.00 0.11 0.00 87 1010.5
20260505092419 44 267 6.0 17.0 0.00 0.11 0.00 87 1010.6
20260505092330 44 259 8.0 17.0 0.00 0.11 0.00 87 1010.6
20260505092240 44 188 8.0 18.0 0.00 0.11 0.00 87 1010.6
20260505092144 44 195 5.0 14.0 0.00 0.11 0.00 87 1010.7
20260505092038 44 217 6.0 14.0 0.00 0.11 0.00 87 1010.7
20260505091930 44 279 9.0 14.0 0.00 0.11 0.00 87 1010.7
20260505091822 44 217 10.0 14.0 0.00 0.11 0.00 87 1010.7
20260505091758 44 273 9.0 14.0 0.00 0.11 0.00 86 1010.6
20260505091748 44 281 7.0 14.0 0.00 0.11 0.00 86 1010.5
20260505091741 45 276 7.0 14.0 0.00 0.11 0.00 87 1010.5
20260505091415 45 275 5.0 14.0 0.00 0.11 0.00 86 1010.5
20260505091322 45 272 5.0 10.0 0.00 0.11 0.00 86 1010.5
20260505091230 45 213 6.0 10.0 0.00 0.11 0.00 86 1010.4
20260505091144 45 198 5.0 10.0 0.00 0.11 0.00 86 1010.4
20260505091021 45 198 5.0 10.0 0.00 0.11 0.00 86 1010.4
20260505090930 45 211 4.0 11.0 0.00 0.11 0.00 86 1010.4
20260505090826 45 194 3.0 11.0 0.00 0.11 0.00 86 1010.3
20260505090726 45 161 4.0 11.0 0.00 0.11 0.00 86 1010.4
20260505090621 45 215 4.0 11.0 0.00 0.11 0.00 85 1010.4
20260505090531 46 210 6.0 11.0 0.00 0.11 0.00 84 1010.4
20260505090428 46 205 6.0 11.0 0.00 0.11 0.00 84 1010.4
20260505090331 46 222 5.0 10.0 0.00 0.11 0.00 84 1010.4
20260505090234 46 287 6.0 11.0 0.00 0.11 0.00 85 1010.4
20260505090226 46 257 5.0 12.0 0.00 0.11 0.00 85 1010.3
20260505090207 47 198 5.0 12.0 0.00 0.11 0.00 85 1010.2
20260505085926 47 195 6.0 12.0 0.00 0.11 0.00 85 1010.2
20260505085818 47 267 6.0 12.0 0.00 0.11 0.00 85 1010.1
20260505085730 47 252 5.0 12.0 0.00 0.11 0.00 84 1010.1
20260505085646 47 218 5.0 12.0 0.00 0.11 0.00 84 1010.1
20260505085529 48 188 7.0 12.0 0.00 0.11 0.00 83 1010.0
20260505085433 48 190 8.0 12.0 0.00 0.11 0.00 84 1010.1
20260505085333 49 229 7.0 13.0 0.00 0.11 0.00 85 1010.0
20260505085233 49 215 7.0 11.0 0.00 0.11 0.00 85 1010.0
20260505085118 49 325 6.0 10.0 0.00 0.11 0.00 86 1010.1
20260505085039 49 286 5.0 10.0 0.00 0.11 0.00 86 1010.1
20260505084929 49 214 4.0 10.0 0.00 0.11 0.00 86 1010.1
20260505084830 49 196 3.0 10.0 0.00 0.11 0.00 86 1010.1
20260505084721 49 243 3.0 10.0 0.00 0.11 0.00 86 1010.2
20260505084709 49 215 4.0 10.0 0.00 0.11 0.00 86 1010.2
20260505084650 49 159 6.0 10.0 0.00 0.11 0.00 86 1010.2
20260505084423 49 183 7.0 11.0 0.00 0.11 0.00 86 1010.2
20260505084317 49 134 6.0 11.0 0.00 0.11 0.00 86 1010.2
20260505084230 49 165 5.0 11.0 0.00 0.11 0.00 86 1010.2
20260505084130 49 163 4.0 11.0 0.00 0.11 0.00 86 1010.2
20260505084019 49 158 4.0 11.0 0.00 0.11 0.00 85 1010.2
20260505083938 49 180 5.0 11.0 0.00 0.11 0.00 85 1010.2
20260505083827 49 220 5.0 11.0 0.00 0.11 0.00 85 1010.2
20260505083743 49 196 6.0 11.0 0.00 0.11 0.00 85 1010.2
20260505083638 49 226 6.0 11.0 0.00 0.11 0.00 85 1010.3
20260505083532 49 195 5.0 12.0 0.00 0.11 0.00 84 1010.3
20260505083422 50 229 3.0 8.0 0.00 0.11 0.00 84 1010.4
20260505083335 49 202 4.0 7.0 0.00 0.11 0.00 84 1010.4
20260505083231 49 226 4.0 7.0 0.00 0.11 0.00 84 1010.4
20260505083217 49 207 4.0 7.0 0.00 0.11 0.00 84 1010.3
20260505083135 49 243 5.0 7.0 0.00 0.11 0.00 84 1010.4
20260505082938 49 212 4.0 7.0 0.00 0.11 0.00 84 1010.3
20260505082838 49 227 3.0 5.0 0.00 0.11 0.00 84 1010.4
20260505082722 49 216 2.0 4.0 0.00 0.11 0.00 84 1010.5
20260505082634 49 204 2.0 4.0 0.00 0.11 0.00 85 1010.5
20260505082521 49 235 2.0 3.0 0.00 0.11 0.00 85 1010.4
20260505082416 49 246 2.0 3.0 0.00 0.11 0.00 85 1010.5
20260505082344 49 247 1.0 3.0 0.00 0.11 0.00 85 1010.4
20260505082227 49 247 1.0 3.0 0.00 0.11 0.00 85 1010.3
20260505082122 49 244 1.0 2.0 0.00 0.11 0.00 84 1010.4
20260505082027 49 241 1.0 2.0 0.00 0.11 0.00 84 1010.4
20260505081918 49 242 0.0 2.0 0.00 0.11 0.00 84 1010.4
20260505081829 49 246 0.0 2.0 0.00 0.11 0.00 84 1010.4
20260505081729 49 248 0.0 2.0 0.00 0.11 0.00 84 1010.4
20260505081724 49 253 0.0 2.0 0.00 0.11 0.00 84 1010.5
20260505081706 49 255 0.0 2.0 0.00 0.11 0.00 84 1010.5
20260505081433 49 259 0.0 2.0 0.00 0.11 0.00 85 1010.4
20260505081327 49 258 1.0 2.0 0.00 0.11 0.00 85 1010.4
20260505081240 49 249 1.0 2.0 0.00 0.11 0.00 85 1010.4
20260505081116 49 213 1.0 2.0 0.00 0.11 0.00 85 1010.4
20260505081042 49 201 1.0 2.0 0.00 0.11 0.00 85 1010.3
20260505080920 49 187 1.0 2.0 0.00 0.11 0.00 86 1010.4
20260505080820 49 163 1.0 2.0 0.00 0.11 0.00 86 1010.4
20260505080724 49 141 1.0 2.0 0.00 0.11 0.00 86 1010.4
20260505080630 49 123 0.0 2.0 0.00 0.11 0.00 86 1010.4
20260505080538 49 74 0.0 1.0 0.00 0.11 0.00 87 1010.4
20260505080418 49 61 0.0 0.0 0.00 0.11 0.00 87 1010.4
20260505080328 49 61 0.0 0.0 0.00 0.11 0.00 87 1010.3
20260505080256 49 61 0.0 0.0 0.00 0.11 0.00 87 1010.3
20260505080248 48 61 0.0 0.0 0.00 0.11 0.00 87 1010.2
20260505080229 48 61 0.0 0.0 0.00 0.11 0.00 87 1010.3
20260505075941 48 61 0.0 0.0 0.00 0.11 0.00 87 1010.2
20260505075826 48 61 0.0 0.0 0.00 0.11 0.00 87 1010.2
20260505075721 48 61 0.0 0.0 0.00 0.11 0.00 87 1010.2
20260505075643 48 61 0.0 0.0 0.00 0.11 0.00 87 1010.2
20260505075539 48 61 0.0 0.0 0.00 0.11 0.00 87 1010.1
20260505075438 48 61 0.0 0.0 0.00 0.11 0.00 87 1010.2
20260505075334 48 61 0.0 0.0 0.00 0.11 0.00 87 1010.2
20260505075223 48 61 0.0 0.0 0.00 0.11 0.00 87 1010.2
20260505075130 48 61 0.0 0.0 0.00 0.11 0.00 87 1010.3
20260505075044 48 61 0.0 0.0 0.00 0.11 0.00 87 1010.4
20260505074920 48 61 0.0 1.0 0.00 0.11 0.00 87 1010.3
20260505074837 48 61 0.0 1.0 0.00 0.11 0.00 87 1010.3
20260505074735 48 61 0.0 1.0 0.00 0.11 0.00 87 1010.2
20260505074721 48 61 0.0 1.0 0.00 0.11 0.00 87 1010.2
20260505074626 48 61 0.0 1.0 0.00 0.11 0.00 87 1010.3
20260505074443 48 61 0.0 2.0 0.00 0.11 0.00 87 1010.3
20260505074340 48 61 0.0 2.0 0.00 0.11 0.00 87 1010.3
20260505074218 48 61 0.0 2.0 0.00 0.11 0.00 87 1010.3
20260505074138 48 61 0.0 2.0 0.00 0.11 0.00 87 1010.3
20260505074035 48 61 0.0 2.0 0.00 0.11 0.00 87 1010.2
20260505073935 48 64 0.0 2.0 0.00 0.11 0.00 87 1010.3
20260505073821 48 68 0.0 2.0 0.00 0.11 0.00 87 1010.3
20260505073723 48 68 0.0 2.0 0.00 0.11 0.00 87 1010.4
20260505073636 48 61 0.0 2.0 0.00 0.11 0.00 87 1010.3
20260505073535 48 59 0.0 2.0 0.00 0.11 0.00 87 1010.4
20260505073445 48 66 0.0 2.0 0.00 0.11 0.00 87 1010.4
20260505073337 48 70 0.0 2.0 0.00 0.11 0.00 87 1010.4
20260505073255 48 77 0.0 2.0 0.00 0.11 0.00 87 1010.5
20260505073243 49 78 0.0 2.0 0.00 0.11 0.00 87 1010.5
20260505073218 48 78 0.0 2.0 0.00 0.11 0.00 87 1010.5
20260505072922 49 80 0.0 2.0 0.00 0.11 0.00 87 1010.4
20260505072831 49 82 0.0 2.0 0.00 0.11 0.00 88 1010.6
20260505072735 49 84 0.0 2.0 0.00 0.11 0.00 88 1010.5
20260505072641 49 93 0.0 2.0 0.00 0.11 0.00 88 1010.5
20260505072542 48 86 0.0 2.0 0.00 0.11 0.00 88 1010.4
20260505072424 49 73 0.0 3.0 0.00 0.11 0.00 88 1010.5
20260505072318 49 73 0.0 3.0 0.00 0.11 0.00 87 1010.5
20260505072238 48 73 0.0 3.0 0.00 0.11 0.00 87 1010.5
20260505072138 48 78 0.0 3.0 0.00 0.11 0.00 87 1010.5
20260505072034 49 78 0.0 3.0 0.00 0.11 0.00 87 1010.6
20260505071935 48 76 0.0 3.0 0.00 0.11 0.00 87 1010.6
20260505071837 48 74 0.0 3.0 0.00 0.11 0.00 87 1010.7
20260505071738 48 74 1.0 3.0 0.00 0.11 0.00 87 1010.6
20260505071719 48 90 1.0 3.0 0.00 0.11 0.00 87 1010.7
20260505071641 48 77 1.0 3.0 0.00 0.11 0.00 87 1010.6
20260505071416 48 82 1.0 3.0 0.00 0.11 0.00 87 1010.7
20260505071327 48 94 1.0 3.0 0.00 0.11 0.00 87 1010.6
20260505071231 48 109 1.0 3.0 0.00 0.11 0.00 87 1010.8
20260505071138 48 94 1.0 3.0 0.00 0.11 0.00 87 1010.7
20260505071021 48 88 1.0 3.0 0.00 0.11 0.00 87 1010.7
20260505070940 48 106 1.0 3.0 0.00 0.11 0.00 87 1010.7
20260505070816 48 94 1.0 3.0 0.00 0.11 0.00 87 1010.7
20260505070717 48 86 1.0 3.0 0.00 0.11 0.00 87 1010.9
20260505070634 48 79 0.0 3.0 0.00 0.11 0.00 87 1010.8
20260505070532 48 90 1.0 3.0 0.00 0.11 0.00 87 1010.8
20260505070418 48 90 1.0 3.0 0.00 0.11 0.00 87 1010.8
20260505070318 48 53 0.0 2.0 0.00 0.11 0.00 87 1010.8
20260505070305 48 41 0.0 2.0 0.00 0.11 0.00 87 1010.8
20260505070257 48 41 0.0 2.0 0.00 0.11 0.00 87 1010.8
20260505070227 48 42 0.0 2.0 0.00 0.11 0.00 87 1010.7
20260505065935 48 42 0.0 2.0 0.00 0.11 0.00 87 1010.9
20260505065840 48 42 0.0 3.0 0.00 0.11 0.00 87 1010.7
20260505065738 48 40 0.0 3.0 0.00 0.11 0.00 87 1010.7
20260505065643 48 41 0.0 4.0 0.00 0.11 0.00 87 1010.7
20260505065520 48 41 0.0 4.0 0.00 0.11 0.00 87 1010.7
20260505065429 48 41 0.0 4.0 0.00 0.11 0.00 87 1010.7
20260505065333 48 60 1.0 4.0 0.00 0.11 0.00 87 1010.7
20260505065222 48 62 0.0 4.0 0.00 0.11 0.00 87 1010.7
20260505065131 48 75 1.0 4.0 0.00 0.11 0.00 87 1010.6
20260505065038 48 78 1.0 4.0 0.00 0.11 0.00 87 1010.7
20260505064944 48 77 2.0 4.0 0.00 0.11 0.00 87 1010.7
20260505064839 48 88 2.0 4.0 0.00 0.11 0.00 87 1010.6
20260505064753 48 106 2.0 4.0 0.00 0.11 0.00 87 1010.7
20260505064742 48 86 1.0 4.0 0.00 0.11 0.00 87 1010.7
20260505064723 48 81 1.0 6.0 0.00 0.11 0.00 87 1010.7
20260505064437 48 49 2.0 6.0 0.00 0.11 0.00 87 1010.7
20260505064331 48 81 2.0 6.0 0.00 0.11 0.00 87 1010.7
20260505064221 48 109 2.0 6.0 0.00 0.11 0.00 87 1010.7
20260505064132 48 80 2.0 6.0 0.00 0.11 0.00 87 1010.7
20260505064033 49 87 1.0 6.0 0.00 0.11 0.00 87 1010.7
20260505063923 49 82 1.0 6.0 0.00 0.11 0.00 87 1010.7
20260505063819 49 81 1.0 6.0 0.00 0.11 0.00 87 1010.7
20260505063726 48 90 1.0 6.0 0.00 0.11 0.00 86 1010.7
20260505063644 48 63 1.0 6.0 0.00 0.11 0.00 87 1010.7
20260505063524 48 76 1.0 6.0 0.00 0.11 0.00 87 1010.8
20260505063429 48 87 1.0 6.0 0.00 0.11 0.00 87 1010.7
20260505063326 49 82 2.0 6.0 0.00 0.11 0.00 87 1010.7
20260505063252 49 66 2.0 6.0 0.00 0.11 0.00 87 1010.7
20260505063240 49 81 1.0 6.0 0.00 0.11 0.00 87 1010.7
20260505063133 49 97 1.0 6.0 0.00 0.11 0.00 87 1010.6
20260505062944 49 119 1.0 6.0 0.00 0.11 0.00 87 1010.7
20260505062834 49 65 2.0 6.0 0.00 0.11 0.00 87 1010.8
20260505062718 49 68 3.0 6.0 0.00 0.11 0.00 87 1010.7
20260505062635 49 82 2.0 7.0 0.00 0.11 0.00 87 1010.8
20260505062544 49 68 1.0 2.0 0.00 0.11 0.00 87 1010.8
20260505062440 49 82 0.0 2.0 0.00 0.11 0.00 87 1010.8
20260505062327 49 60 1.0 2.0 0.00 0.11 0.00 87 1010.8
20260505062233 49 51 1.0 6.0 0.00 0.11 0.00 87 1010.8
20260505062130 49 69 0.0 6.0 0.00 0.11 0.00 87 1010.9
20260505062038 49 59 0.0 6.0 0.00 0.11 0.00 87 1010.9
20260505061942 49 57 0.0 6.0 0.00 0.11 0.00 87 1010.8
20260505061825 49 64 1.0 6.0 0.00 0.11 0.00 86 1010.8
20260505061742 49 64 1.0 6.0 0.00 0.11 0.00 86 1010.8
20260505061733 49 49 1.0 6.0 0.00 0.11 0.00 86 1010.8
20260505061711 49 57 1.0 6.0 0.00 0.11 0.00 86 1010.8
20260505061422 49 59 2.0 6.0 0.00 0.11 0.00 86 1010.7
20260505061328 49 93 2.0 4.0 0.00 0.11 0.00 86 1010.9
20260505061224 49 84 2.0 4.0 0.00 0.11 0.00 86 1010.8
20260505061118 48 81 2.0 4.0 0.00 0.11 0.00 86 1010.9
20260505061035 48 68 1.0 4.0 0.00 0.11 0.00 86 1010.9
20260505060937 48 75 0.0 4.0 0.00 0.11 0.00 86 1010.8
20260505060822 49 73 0.0 6.0 0.00 0.11 0.00 86 1010.8
20260505060723 48 74 1.0 6.0 0.00 0.11 0.00 86 1010.9
20260505060635 48 67 2.0 6.0 0.00 0.11 0.00 86 1010.9
20260505060520 49 71 2.0 6.0 0.00 0.11 0.00 86 1010.9
20260505060427 49 107 2.0 6.0 0.00 0.11 0.00 86 1010.7
20260505060343 48 73 2.0 6.0 0.00 0.11 0.00 86 1010.8
20260505060252 48 84 2.0 6.0 0.00 0.11 0.00 86 1010.8
20260505060240 48 78 2.0 6.0 0.00 0.11 0.00 86 1010.9
20260505060201 48 69 3.0 6.0 0.00 0.11 0.00 86 1010.9
20260505055927 48 98 2.0 4.0 0.00 0.11 0.11 86 1010.8
20260505055818 48 71 2.0 4.0 0.00 0.11 0.11 86 1010.9
20260505055727 48 67 2.0 4.0 0.00 0.11 0.11 86 1010.9
20260505055639 48 116 2.0 4.0 0.00 0.11 0.11 86 1010.9
20260505055525 48 99 2.0 4.0 0.00 0.11 0.11 86 1010.9
20260505055430 48 113 2.0 7.0 0.00 0.11 0.11 86 1011.1
20260505055341 48 94 1.0 7.0 0.00 0.11 0.11 86 1011.0
20260505055221 48 82 1.0 7.0 0.00 0.11 0.11 86 1010.9
20260505055134 48 88 1.0 7.0 0.00 0.11 0.11 86 1010.9
20260505055043 48 96 1.0 7.0 0.00 0.11 0.11 86 1010.9
20260505054927 48 78 1.0 7.0 0.00 0.11 0.11 86 1010.9
20260505054837 48 100 2.0 7.0 0.00 0.11 0.11 86 1011.1
20260505054738 48 98 3.0 7.0 0.00 0.11 0.11 86 1011.1
20260505054725 48 109 3.0 7.0 0.00 0.11 0.11 86 1011.2
20260505054713 48 97 2.0 4.0 0.00 0.11 0.11 86 1011.2
20260505054418 48 111 2.0 4.0 0.00 0.11 0.11 86 1011.2
20260505054342 48 112 2.0 4.0 0.00 0.11 0.11 86 1011.2
20260505054239 48 103 2.0 4.0 0.00 0.11 0.11 86 1011.1
20260505054122 48 81 2.0 4.0 0.00 0.11 0.11 87 1010.9
20260505054025 48 115 2.0 4.0 0.00 0.11 0.11 87 1010.9
20260505053922 48 85 2.0 4.0 0.00 0.11 0.11 87 1010.8
20260505053831 48 78 1.0 4.0 0.00 0.11 0.11 87 1010.7
20260505053720 48 114 1.0 4.0 0.00 0.11 0.11 87 1010.6
20260505053623 48 100 2.0 4.0 0.00 0.11 0.11 87 1010.7
20260505053529 48 101 2.0 4.0 0.00 0.11 0.11 87 1010.6
20260505053426 48 71 2.0 4.0 0.00 0.11 0.11 86 1010.6
20260505053319 48 80 2.0 4.0 0.00 0.11 0.11 86 1010.6
20260505053230 48 79 2.0 4.0 0.00 0.11 0.11 87 1010.7
20260505053216 48 95 2.0 4.0 0.00 0.11 0.11 86 1010.7
20260505053121 48 87 2.0 4.0 0.00 0.11 0.11 86 1010.7
20260505052931 48 92 2.0 4.0 0.00 0.11 0.11 86 1010.7
20260505052844 49 77 2.0 4.0 0.00 0.11 0.11 86 1010.7
20260505052741 48 83 2.0 4.0 0.00 0.11 0.11 86 1010.7
20260505052636 48 88 2.0 3.0 0.00 0.11 0.11 86 1010.7
20260505052521 48 105 2.0 3.0 0.00 0.11 0.11 86 1010.7
20260505052443 48 109 2.0 3.0 0.00 0.11 0.11 86 1010.7
20260505052330 48 109 1.0 3.0 0.00 0.11 0.11 86 1010.8
20260505052230 48 95 1.0 3.0 0.01 0.11 0.11 86 1010.7
20260505052132 48 96 1.0 4.0 0.01 0.11 0.11 86 1010.7
20260505052024 48 106 1.0 4.0 0.01 0.11 0.11 86 1010.8
20260505051932 48 98 1.0 4.0 0.01 0.11 0.11 86 1010.9
20260505051837 48 89 0.0 4.0 0.01 0.11 0.11 85 1010.8
20260505051726 48 76 0.0 4.0 0.01 0.11 0.11 85 1010.9
20260505051719 48 74 1.0 4.0 0.01 0.11 0.11 85 1010.8
20260505051708 48 78 2.0 4.0 0.01 0.11 0.11 85 1010.8
20260505051442 48 85 2.0 4.0 0.01 0.11 0.11 85 1010.9
20260505051325 48 82 2.0 4.0 0.01 0.11 0.11 86 1011.0
20260505051226 48 88 2.0 4.0 0.02 0.11 0.11 86 1011.0
20260505051130 48 77 2.0 4.0 0.02 0.11 0.11 86 1011.1
20260505051026 48 84 2.0 4.0 0.02 0.11 0.11 86 1011.1
20260505050934 48 119 2.0 4.0 0.02 0.11 0.11 86 1011.1
20260505050834 48 59 1.0 4.0 0.02 0.11 0.11 86 1011.0
20260505050720 48 101 1.0 4.0 0.02 0.11 0.11 85 1011.1
20260505050622 48 101 1.0 4.0 0.02 0.11 0.11 85 1011.1
20260505050532 48 107 2.0 4.0 0.02 0.11 0.11 85 1011.0
20260505050430 48 76 2.0 4.0 0.03 0.11 0.11 85 1011.0
20260505050331 48 80 2.0 4.0 0.03 0.11 0.11 85 1011.1
20260505050251 48 78 2.0 4.0 0.03 0.11 0.11 85 1010.9
20260505050242 48 56 2.0 4.0 0.03 0.11 0.11 85 1011.0
20260505050228 48 81 1.0 4.0 0.03 0.11 0.11 85 1010.9
20260505041724 49 165 2.0 5.0 0.08 0.09 0.09 84 1011.3
20260505041721 49 151 2.0 5.0 0.09 0.09 0.09 84 1011.3
20260505041655 49 158 2.0 3.0 0.09 0.09 0.09 84 1011.4
20260505041423 49 166 2.0 4.0 0.09 0.09 0.09 83 1011.4
20260505041323 49 171 2.0 4.0 0.08 0.09 0.09 83 1011.4
20260505041243 49 170 2.0 4.0 0.09 0.09 0.09 83 1011.4
20260505041126 49 185 2.0 4.0 0.09 0.09 0.09 83 1011.4
20260505041025 49 162 2.0 4.0 0.09 0.09 0.09 84 1011.4
20260505040924 49 164 1.0 4.0 0.09 0.09 0.09 84 1011.4
20260505040821 49 178 1.0 4.0 0.09 0.09 0.09 83 1011.4
20260505040734 49 186 2.0 4.0 0.09 0.09 0.09 83 1011.4
20260505040631 49 170 2.0 5.0 0.09 0.09 0.09 83 1011.4
20260505040533 49 140 0.0 4.0 0.08 0.08 0.08 84 1011.3
20260505040433 49 172 0.0 7.0 0.08 0.08 0.08 83 1011.4
20260505040345 49 196 1.0 8.0 0.08 0.08 0.08 83 1011.2
20260505040249 49 192 2.0 8.0 0.08 0.08 0.08 83 1011.4
20260505040247 49 171 2.0 8.0 0.08 0.08 0.08 82 1011.4
20260505040228 49 159 2.0 8.0 0.08 0.08 0.08 82 1011.4
20260505035936 49 164 3.0 9.0 0.08 0.08 0.08 82 1011.4
20260505035830 49 138 3.0 9.0 0.08 0.08 0.08 82 1011.4
20260505035723 49 163 3.0 9.0 0.08 0.08 0.08 82 1011.4
20260505035635 49 161 4.0 9.0 0.07 0.07 0.07 83 1011.4
20260505035532 49 140 2.0 9.0 0.07 0.07 0.07 83 1011.2
20260505035427 49 180 3.0 9.0 0.07 0.07 0.07 83 1011.3
20260505035328 49 173 5.0 9.0 0.07 0.07 0.07 82 1011.4
20260505035238 49 111 6.0 9.0 0.07 0.07 0.07 82 1011.3
20260505035124 49 140 5.0 9.0 0.07 0.07 0.07 82 1011.3
20260505035035 49 160 5.0 11.0 0.07 0.07 0.07 83 1011.3
20260505034930 49 180 4.0 11.0 0.07 0.07 0.07 83 1011.4
20260505034840 49 175 3.0 12.0 0.07 0.07 0.07 83 1011.3
20260505034736 49 167 3.0 12.0 0.07 0.07 0.07 83 1011.4
20260505034730 49 230 4.0 12.0 0.07 0.07 0.07 83 1011.4
20260505034711 49 199 4.0 12.0 0.06 0.06 0.06 82 1011.3
20260505034427 49 150 5.0 12.0 0.06 0.06 0.06 82 1011.3
20260505034341 49 209 6.0 12.0 0.06 0.06 0.06 82 1011.4
20260505034225 49 148 6.0 12.0 0.06 0.06 0.06 82 1011.3
20260505034126 49 151 8.0 12.0 0.06 0.06 0.06 81 1011.2
20260505034039 49 162 7.0 13.0 0.06 0.06 0.06 81 1011.2
20260505033936 49 135 5.0 13.0 0.06 0.06 0.06 81 1011.4
20260505033823 49 214 5.0 14.0 0.06 0.06 0.06 80 1011.2
20260505033722 49 254 5.0 14.0 0.06 0.06 0.06 80 1011.3
20260505033621 50 181 6.0 14.0 0.06 0.06 0.06 79 1011.4
20260505033520 50 215 6.0 14.0 0.06 0.06 0.06 79 1011.4
20260505033445 50 211 6.0 14.0 0.04 0.04 0.04 79 1011.4
20260505033330 50 148 7.0 14.0 0.04 0.04 0.04 78 1011.5
20260505033231 50 201 7.0 14.0 0.04 0.04 0.04 78 1011.4
20260505033223 50 205 8.0 14.0 0.04 0.04 0.04 77 1011.4
20260505033210 50 209 8.0 14.0 0.04 0.04 0.04 76 1011.4
20260505032943 51 244 7.0 14.0 0.04 0.04 0.04 76 1011.3
20260505032830 51 140 7.0 14.0 0.04 0.04 0.04 76 1011.2
20260505032745 51 178 7.0 14.0 0.04 0.04 0.04 75 1011.2
20260505032632 51 165 5.0 12.0 0.04 0.04 0.04 74 1011.1
20260505032537 51 235 4.0 15.0 0.04 0.04 0.04 74 1011.2
20260505032428 51 167 4.0 15.0 0.04 0.04 0.04 73 1011.2
20260505032330 51 171 5.0 15.0 0.04 0.04 0.04 72 1011.2
20260505032226 52 226 6.0 15.0 0.03 0.03 0.03 71 1011.2
20260505032119 52 194 6.0 15.0 0.03 0.03 0.03 70 1011.2
20260505032043 52 217 5.0 15.0 0.03 0.03 0.03 69 1011.1
20260505031931 52 198 6.0 15.0 0.02 0.02 0.02 68 1011.0
20260505031818 52 242 9.0 15.0 0.02 0.02 0.02 68 1010.8
20260505031728 53 173 10.0 16.0 0.01 0.01 0.01 67 1010.7
20260505031707 53 148 9.0 16.0 0.01 0.01 0.01 66 1010.7
20260505031658 53 141 8.0 16.0 0.01 0.01 0.01 66 1010.7
20260505031433 53 211 7.0 16.0 0.01 0.01 0.01 65 1010.7
20260505031337 53 156 8.0 16.0 0.00 0.00 0.00 64 1010.7
20260505031243 54 195 8.0 16.0 0.00 0.00 0.00 64 1010.7
20260505031136 54 176 7.0 16.0 0.00 0.00 0.00 63 1010.7
20260505031032 54 161 8.0 16.0 0.00 0.00 0.00 62 1010.7
20260505030933 54 175 9.0 16.0 0.00 0.00 0.00 62 1010.6
20260505030823 54 203 8.0 11.0 0.00 0.00 0.00 61 1010.7
20260505030738 54 242 6.0 11.0 0.00 0.00 0.00 62 1010.7
20260505030645 54 198 6.0 11.0 0.00 0.00 0.00 61 1010.6
20260505030538 54 150 7.0 11.0 0.00 0.00 0.00 61 1010.5
20260505030425 54 144 5.0 10.0 0.00 0.00 0.00 61 1010.4
20260505030318 55 167 4.0 8.0 0.00 0.00 0.00 61 1010.4
20260505030305 55 168 3.0 8.0 0.00 0.00 0.00 61 1010.4
20260505030257 55 190 3.0 7.0 0.00 0.00 0.00 61 1010.4
20260505030233 55 217 3.0 7.0 0.00 0.00 0.00 60 1010.4
20260505025938 55 225 3.0 7.0 0.00 0.00 0.00 61 1010.2
20260505025842 55 203 3.0 5.0 0.00 0.00 0.00 61 1010.2
20260505025729 55 221 3.0 7.0 0.00 0.00 0.00 61 1010.2
20260505025645 55 175 2.0 7.0 0.00 0.00 0.00 61 1010.2
20260505025522 55 178 1.0 7.0 0.00 0.00 0.00 61 1010.1
20260505025441 54 223 1.0 7.0 0.00 0.00 0.00 61 1010.0
20260505025334 54 260 1.0 9.0 0.00 0.00 0.00 61 1010.0
20260505025219 54 233 3.0 9.0 0.00 0.00 0.00 59 1009.9
20260505025139 54 296 3.0 11.0 0.00 0.00 0.00 60 1010.0
20260505025020 55 277 3.0 11.0 0.00 0.00 0.00 60 1010.0
20260505024940 54 258 4.0 11.0 0.00 0.00 0.00 60 1010.0
20260505024824 54 259 2.0 11.0 0.00 0.00 0.00 61 1009.9
20260505024738 54 288 2.0 11.0 0.00 0.00 0.00 60 1009.8
20260505024725 54 218 4.0 11.0 0.00 0.00 0.00 60 1009.8
20260505024711 54 229 6.0 13.0 0.00 0.00 0.00 60 1009.8
20260505024440 54 246 7.0 13.0 0.00 0.00 0.00 60 1009.8
20260505024341 55 285 7.0 13.0 0.00 0.00 0.00 60 1009.8
20260505024223 55 281 5.0 13.0 0.00 0.00 0.00 60 1009.8
20260505024116 55 247 4.0 13.0 0.00 0.00 0.00 60 1009.8
20260505024044 55 254 6.0 13.0 0.00 0.00 0.00 60 1009.8
20260505023934 55 264 7.0 13.0 0.00 0.00 0.00 60 1009.7
20260505023844 55 300 8.0 13.0 0.00 0.00 0.00 60 1009.8
20260505023732 55 295 9.0 13.0 0.00 0.00 0.00 59 1009.7
20260505023629 55 284 8.0 12.0 0.00 0.00 0.00 59 1009.7
20260505023525 55 266 8.0 12.0 0.00 0.00 0.00 60 1009.7
20260505023442 55 281 8.0 12.0 0.00 0.00 0.00 60 1009.7
20260505023337 55 325 7.0 15.0 0.00 0.00 0.00 59 1009.6
20260505023222 56 297 7.0 15.0 0.00 0.00 0.00 59 1009.7
20260505023211 56 306 6.0 15.0 0.00 0.00 0.00 58 1009.7
20260505023145 56 291 6.0 15.0 0.00 0.00 0.00 59 1009.5
20260505022918 56 278 5.0 15.0 0.00 0.00 0.00 57 1009.7
20260505022844 56 289 7.0 15.0 0.00 0.00 0.00 57 1009.5
20260505022738 56 280 8.0 15.0 0.00 0.00 0.00 56 1009.5
20260505022644 56 259 10.0 15.0 0.00 0.00 0.00 56 1009.5
20260505022541 57 231 11.0 15.0 0.00 0.00 0.00 56 1009.4
20260505022427 57 280 9.0 15.0 0.00 0.00 0.00 55 1009.1
20260505022339 57 310 6.0 15.0 0.00 0.00 0.00 53 1009.2
20260505022230 57 320 3.0 8.0 0.00 0.00 0.00 53 1009.4
20260505022117 57 290 2.0 4.0 0.00 0.00 0.00 52 1009.3
20260505022031 57 282 1.0 4.0 0.00 0.00 0.00 53 1009.4
20260505021928 57 288 1.0 3.0 0.00 0.00 0.00 53 1009.3
20260505021838 57 284 1.0 3.0 0.00 0.00 0.00 52 1009.3
20260505021737 57 268 1.0 3.0 0.00 0.00 0.00 53 1009.3
20260505021728 57 287 1.0 3.0 0.00 0.00 0.00 52 1009.3
20260505021659 57 250 1.0 3.0 0.00 0.00 0.00 54 1009.3
20260505021420 57 200 1.0 3.0 0.00 0.00 0.00 53 1009.3
20260505021325 57 244 1.0 3.0 0.00 0.00 0.00 53 1009.3
20260505021241 57 307 1.0 3.0 0.00 0.00 0.00 53 1009.3
20260505021121 57 292 1.0 3.0 0.00 0.00 0.00 54 1009.3
20260505021044 57 268 1.0 4.0 0.00 0.00 0.00 54 1009.3
20260505020934 57 267 0.0 4.0 0.00 0.00 0.00 54 1009.3
20260505020839 57 267 1.0 4.0 0.00 0.00 0.00 54 1009.3
20260505020744 56 272 0.0 4.0 0.00 0.00 0.00 54 1009.3
20260505020642 56 267 0.0 4.0 0.00 0.00 0.00 53 1009.3
20260505020525 56 275 1.0 4.0 0.00 0.00 0.00 54 1009.3
20260505020421 56 276 2.0 4.0 0.00 0.00 0.00 54 1009.4
20260505020331 56 277 2.0 4.0 0.00 0.00 0.00 53 1009.5
20260505020250 56 270 2.0 4.0 0.00 0.00 0.00 54 1009.5
20260505020235 56 260 2.0 4.0 0.00 0.00 0.00 54 1009.5
20260505020127 56 312 2.0 4.0 0.00 0.00 0.00 54 1009.5
20260505015924 56 278 2.0 4.0 0.00 0.00 0.00 55 1009.5
20260505015827 56 273 2.0 4.0 0.00 0.00 0.00 55 1009.5
20260505015724 56 295 2.0 4.0 0.00 0.00 0.00 55 1009.5
20260505015639 56 333 1.0 3.0 0.00 0.00 0.00 56 1009.4
20260505015537 56 319 1.0 4.0 0.00 0.00 0.00 56 1009.4
20260505015424 56 309 0.0 4.0 0.00 0.00 0.00 57 1009.4
20260505015334 56 308 0.0 4.0 0.00 0.00 0.00 57 1009.3
20260505015225 56 302 1.0 4.0 0.00 0.00 0.00 56 1009.3
20260505015145 56 300 1.0 4.0 0.00 0.00 0.00 55 1009.5
20260505015042 56 308 1.0 4.0 0.00 0.00 0.00 57 1009.4
20260505014917 56 303 1.0 5.0 0.00 0.00 0.00 57 1009.4
20260505014834 56 304 1.0 5.0 0.00 0.00 0.00 57 1009.2
20260505014748 56 306 2.0 5.0 0.00 0.00 0.00 58 1009.2
20260505014733 56 276 1.0 5.0 0.00 0.00 0.00 59 1009.2
20260505014641 56 349 0.0 5.0 0.00 0.00 0.00 58 1009.1
20260505014434 56 350 0.0 5.0 0.00 0.00 0.00 58 1009.1
20260505014340 56 322 1.0 5.0 0.00 0.00 0.00 58 1009.1
20260505014222 56 302 2.0 5.0 0.00 0.00 0.00 58 1009.1
20260505014118 56 35 3.0 5.0 0.00 0.00 0.00 57 1009.1
20260505014024 56 360 2.0 5.0 0.00 0.00 0.00 58 1009.0
20260505013928 56 350 2.0 4.0 0.00 0.00 0.00 58 1009.1
20260505013835 56 347 2.0 4.0 0.00 0.00 0.00 59 1009.0
20260505013728 56 340 2.0 4.0 0.00 0.00 0.00 59 1009.0
20260505013640 56 333 1.0 4.0 0.00 0.00 0.00 60 1008.9
20260505013544 56 10 0.0 4.0 0.00 0.00 0.00 60 1008.9
20260505013419 56 307 1.0 4.0 0.00 0.00 0.00 58 1008.9
20260505013317 56 297 1.0 4.0 0.00 0.00 0.00 57 1008.9
20260505013224 56 298 2.0 4.0 0.00 0.00 0.00 57 1008.9
20260505013220 56 275 3.0 4.0 0.00 0.00 0.00 56 1008.9
20260505013202 56 277 2.0 4.0 0.00 0.00 0.00 57 1008.9
20260505012929 56 295 2.0 4.0 0.00 0.00 0.00 57 1008.8
20260505012820 56 234 2.0 4.0 0.00 0.00 0.00 56 1008.9
20260505012721 56 258 2.0 4.0 0.00 0.00 0.00 56 1009.0
20260505012620 56 274 2.0 4.0 0.00 0.00 0.00 57 1009.0
20260505012542 56 272 1.0 4.0 0.00 0.00 0.00 58 1009.0
20260505012442 56 263 1.0 4.0 0.00 0.00 0.00 56 1009.0
20260505012317 56 261 2.0 5.0 0.00 0.00 0.00 57 1009.0
20260505012233 56 263 2.0 5.0 0.00 0.00 0.00 57 1009.0
20260505012129 55 273 2.0 5.0 0.00 0.00 0.00 58 1009.0
20260505012036 55 263 2.0 5.0 0.00 0.00 0.00 59 1009.0
20260505011917 55 267 2.0 5.0 0.00 0.00 0.00 60 1009.0
20260505011829 55 234 3.0 5.0 0.00 0.00 0.00 60 1008.9
20260505011730 55 238 3.0 5.0 0.00 0.00 0.00 58 1008.9
20260505011713 55 291 3.0 5.0 0.00 0.00 0.00 59 1008.9
20260505011657 55 277 2.0 4.0 0.00 0.00 0.00 60 1008.9
20260505011421 55 256 2.0 4.0 0.00 0.00 0.00 62 1008.9
20260505011328 55 277 1.0 4.0 0.00 0.00 0.00 61 1008.9
20260505011243 55 321 0.0 4.0 0.00 0.00 0.00 60 1008.9
20260505011121 55 323 1.0 4.0 0.00 0.00 0.00 60 1009.0
20260505011032 55 333 1.0 4.0 0.00 0.00 0.00 61 1009.0
20260505010923 55 324 2.0 4.0 0.00 0.00 0.00 63 1009.0
20260505010844 55 323 2.0 4.0 0.00 0.00 0.00 62 1009.1
20260505010743 55 333 1.0 2.0 0.00 0.00 0.00 63 1009.1
20260505010623 55 349 0.0 4.0 0.00 0.00 0.00 62 1009.1
20260505010521 55 351 0.0 4.0 0.00 0.00 0.00 61 1009.0
20260505010441 55 9 0.0 4.0 0.00 0.00 0.00 62 1009.0
20260505010339 55 5 0.0 4.0 0.00 0.00 0.00 62 1009.0
20260505010258 55 9 0.0 4.0 0.00 0.00 0.00 62 1009.0
20260505010242 55 15 1.0 4.0 0.00 0.00 0.00 61 1009.0
20260505010138 56 19 1.0 4.0 0.00 0.00 0.00 60 1009.1
20260505005927 56 19 2.0 4.0 0.00 0.00 0.00 60 1009.0
20260505005838 56 13 2.0 5.0 0.00 0.00 0.00 60 1009.0
20260505005735 56 13 1.0 5.0 0.00 0.00 0.00 59 1009.1
20260505005619 56 17 1.0 8.0 0.00 0.00 0.00 59 1009.0
20260505005533 56 23 2.0 8.0 0.00 0.00 0.00 56 1008.9
20260505005421 56 43 2.0 8.0 0.00 0.00 0.00 55 1009.0
20260505005347 56 64 1.0 8.0 0.00 0.00 0.00 55 1009.1
20260505005232 56 46 2.0 9.0 0.00 0.00 0.00 53 1009.0
20260505005144 56 76 2.0 11.0 0.00 0.00 0.00 54 1009.1
20260505005027 56 103 3.0 12.0 0.00 0.00 0.00 53 1009.2
20260505004929 56 40 3.0 12.0 0.00 0.00 0.00 55 1009.4
20260505004831 57 65 3.0 12.0 0.00 0.00 0.00 54 1009.4
20260505004759 57 72 4.0 12.0 0.00 0.00 0.00 52 1009.3
20260505004752 57 123 4.0 12.0 0.00 0.00 0.00 54 1009.5
20260505004707 57 109 5.0 12.0 0.00 0.00 0.00 53 1009.5
20260505004427 57 106 8.0 12.0 0.00 0.00 0.00 52 1009.5
20260505004330 58 155 8.0 12.0 0.00 0.00 0.00 51 1009.5
20260505004243 58 159 5.0 14.0 0.00 0.00 0.00 53 1009.5
20260505004129 58 137 3.0 15.0 0.00 0.00 0.00 53 1009.6
20260505004039 59 136 3.0 15.0 0.00 0.00 0.00 51 1009.7
20260505003936 59 94 2.0 15.0 0.00 0.00 0.00 51 1009.6
20260505003837 59 90 2.0 15.0 0.00 0.00 0.00 50 1009.5
20260505003729 59 157 3.0 15.0 0.00 0.00 0.00 48 1009.5
20260505003625 59 171 4.0 15.0 0.00 0.00 0.00 47 1009.5
20260505003544 60 182 6.0 15.0 0.00 0.00 0.00 45 1009.4
20260505003443 60 177 8.0 15.0 0.00 0.00 0.00 44 1009.4
20260505003321 60 148 9.0 15.0 0.00 0.00 0.00 43 1009.5
20260505003258 60 143 10.0 12.0 0.00 0.00 0.00 42 1009.4
20260505003252 61 178 9.0 12.0 0.00 0.00 0.00 41 1009.3
20260505003232 61 167 8.0 14.0 0.00 0.00 0.00 41 1009.4
20260505002929 61 144 7.0 12.0 0.00 0.00 0.00 40 1009.3
20260505002835 61 159 9.0 12.0 0.00 0.00 0.00 40 1009.3
20260505002742 61 149 8.0 12.0 0.00 0.00 0.00 40 1009.2
20260505002641 61 150 6.0 12.0 0.00 0.00 0.00 40 1009.3
20260505002535 61 155 7.0 12.0 0.00 0.00 0.00 40 1009.3
20260505002430 61 177 6.0 15.0 0.00 0.00 0.00 40 1009.3
20260505002343 61 165 6.0 15.0 0.00 0.00 0.00 40 1009.2
20260505002226 61 180 6.0 15.0 0.00 0.00 0.00 40 1009.2
20260505002145 61 223 6.0 15.0 0.00 0.00 0.00 40 1009.2
20260505002026 61 223 7.0 15.0 0.00 0.00 0.00 39 1009.2
20260505001935 61 186 5.0 17.0 0.00 0.00 0.00 39 1009.1
20260505001819 61 169 4.0 17.0 0.00 0.00 0.00 40 1009.1
20260505001753 61 215 7.0 17.0 0.00 0.00 0.00 40 1009.0
20260505001743 61 186 9.0 17.0 0.00 0.00 0.00 39 1009.0
20260505001722 61 173 9.0 17.0 0.00 0.00 0.00 39 1009.0
20260505001421 61 167 9.0 17.0 0.00 0.00 0.00 39 1009.0
20260505001320 61 141 11.0 17.0 0.00 0.00 0.00 39 1008.9
20260505001246 61 183 11.0 17.0 0.00 0.00 0.00 39 1008.9
20260505001123 61 134 10.0 18.0 0.00 0.00 0.00 39 1008.9
20260505001029 61 163 10.0 17.0 0.00 0.00 0.00 39 1008.9
20260505000922 61 171 8.0 17.0 0.00 0.00 0.00 39 1008.8
20260505000833 61 160 9.0 17.0 0.00 0.00 0.00 39 1008.8
20260505000722 61 200 9.0 17.0 0.00 0.00 0.00 39 1008.8
20260505000633 61 173 9.0 17.0 0.00 0.00 0.00 39 1008.7
20260505000526 61 148 9.0 17.0 0.00 0.00 0.00 39 1008.7
20260505000422 62 180 9.0 16.0 0.00 0.00 0.00 38 1008.7
20260505000314 62 275 9.0 16.0 0.00 0.00 0.00 37 1008.5
20260505000310 62 225 6.0 16.0 0.00 0.00 0.00 37 1008.4
20260505000219 62 196 6.0 16.0 0.00 0.00 0.00 37 1008.3
20260504235930 62 211 6.0 16.0 0.00 0.00 0.00 37 1008.4
20260504235838 62 168 7.0 16.0 0.00 0.00 0.00 37 1008.5
20260504235740 62 220 8.0 16.0 0.00 0.00 0.00 37 1008.4
20260504235633 62 167 6.0 16.0 0.00 0.00 0.00 36 1008.3
20260504235542 62 169 5.0 9.0 0.00 0.00 0.00 36 1008.3
20260504235439 62 219 4.0 9.0 0.00 0.00 0.00 36 1008.3
20260504235335 62 188 1.0 8.0 0.00 0.00 0.00 36 1008.2
20260504235233 62 181 2.0 8.0 0.00 0.00 0.00 36 1008.2
20260504235141 62 194 3.0 8.0 0.00 0.00 0.00 36 1008.3
20260504235042 62 192 4.0 8.0 0.00 0.00 0.00 36 1008.3
20260504234918 62 214 4.0 10.0 0.00 0.00 0.00 35 1008.4
20260504234836 62 204 4.0 10.0 0.00 0.00 0.00 35 1008.5
20260504234802 62 185 3.0 10.0 0.00 0.00 0.00 36 1008.3
20260504234753 62 207 2.0 10.0 0.00 0.00 0.00 36 1008.2
20260504234721 62 175 3.0 10.0 0.00 0.00 0.00 36 1008.2
20260504234434 62 271 4.0 10.0 0.00 0.00 0.00 35 1008.1
20260504234328 63 254 4.0 10.0 0.00 0.00 0.00 35 1008.2
20260504234245 63 215 5.0 12.0 0.00 0.00 0.00 35 1008.1
20260504234118 63 209 5.0 14.0 0.00 0.00 0.00 35 1008.0
20260504234035 63 257 4.0 14.0 0.00 0.00 0.00 35 1008.1
20260504233923 63 286 5.0 14.0 0.00 0.00 0.00 36 1008.1
20260504233841 63 196 4.0 14.0 0.00 0.00 0.00 35 1008.1
20260504233721 63 234 3.0 14.0 0.00 0.00 0.00 35 1008.1
20260504233647 63 225 2.0 14.0 0.00 0.00 0.00 35 1008.1
20260504233527 63 204 4.0 14.0 0.00 0.00 0.00 35 1008.0
20260504233439 63 263 7.0 14.0 0.00 0.00 0.00 35 1008.0
20260504233319 63 239 7.0 14.0 0.00 0.00 0.00 35 1008.1
20260504233257 63 229 5.0 10.0 0.00 0.00 0.00 35 1007.9
20260504233246 63 248 5.0 10.0 0.00 0.00 0.00 35 1008.1
20260504233203 63 258 4.0 10.0 0.00 0.00 0.00 34 1008.1
20260504232933 63 303 5.0 10.0 0.00 0.00 0.00 34 1008.1
20260504232817 63 271 5.0 10.0 0.00 0.00 0.00 35 1008.0
20260504232744 63 273 4.0 10.0 0.00 0.00 0.00 35 1008.1
20260504232638 63 275 3.0 11.0 0.00 0.00 0.00 35 1008.1
20260504232522 63 182 4.0 12.0 0.00 0.00 0.00 35 1008.0
20260504232421 63 205 4.0 12.0 0.00 0.00 0.00 35 1007.9
20260504232344 63 191 4.0 12.0 0.00 0.00 0.00 35 1007.9
20260504232225 63 208 3.0 16.0 0.00 0.00 0.00 35 1007.9
20260504232131 63 190 3.0 16.0 0.00 0.00 0.00 34 1007.9
20260504232019 63 263 4.0 16.0 0.00 0.00 0.00 34 1007.9
20260504231930 63 161 6.0 16.0 0.00 0.00 0.00 35 1007.9
20260504231829 63 243 7.0 16.0 0.00 0.00 0.00 35 1007.9
20260504231754 63 178 7.0 16.0 0.00 0.00 0.00 35 1007.9
20260504231743 63 242 7.0 16.0 0.00 0.00 0.00 35 1007.9
20260504231721 63 233 9.0 17.0 0.00 0.00 0.00 35 1008.0
20260504231417 63 234 10.0 17.0 0.00 0.00 0.00 35 1008.0
20260504231329 63 256 9.0 17.0 0.00 0.00 0.00 35 1008.1
20260504231222 63 217 8.0 17.0 0.00 0.00 0.00 35 1008.0
20260504231128 63 219 8.0 17.0 0.00 0.00 0.00 35 1008.0
20260504231022 63 202 9.0 17.0 0.00 0.00 0.00 35 1008.1
20260504230939 63 273 10.0 17.0 0.00 0.00 0.00 34 1007.9
20260504230848 63 261 11.0 17.0 0.00 0.00 0.00 34 1007.9
20260504230734 63 269 10.0 17.0 0.00 0.00 0.00 34 1008.0
20260504230643 63 229 7.0 13.0 0.00 0.00 0.00 34 1007.9
20260504230524 63 244 8.0 13.0 0.00 0.00 0.00 34 1007.8
20260504230434 64 207 8.0 13.0 0.00 0.00 0.00 34 1007.7
20260504230317 64 259 6.0 13.0 0.00 0.00 0.00 34 1007.7
20260504230311 64 292 5.0 13.0 0.00 0.00 0.00 35 1007.7
20260504230215 64 207 7.0 13.0 0.00 0.00 0.00 34 1007.7
20260504225943 64 165 7.0 13.0 0.00 0.00 0.00 34 1007.6
20260504225844 64 209 7.0 12.0 0.00 0.00 0.00 34 1007.6
20260504225720 64 197 7.0 19.0 0.00 0.00 0.00 34 1007.6
20260504225623 64 280 6.0 19.0 0.00 0.00 0.00 34 1007.7
20260504225539 64 246 6.0 19.0 0.00 0.00 0.00 34 1007.6
20260504225430 64 252 4.0 19.0 0.00 0.00 0.00 34 1007.6
20260504225317 64 275 5.0 19.0 0.00 0.00 0.00 34 1007.6
20260504225246 64 222 8.0 19.0 0.00 0.00 0.00 33 1007.6
20260504225144 64 265 10.0 19.0 0.00 0.00 0.00 33 1007.4
20260504225031 64 275 11.0 19.0 0.00 0.00 0.00 33 1007.4
20260504224919 64 252 11.0 19.0 0.00 0.00 0.00 32 1007.3
20260504224809 64 259 9.0 18.0 0.00 0.00 0.00 32 1007.5
20260504224759 64 215 9.0 18.0 0.00 0.00 0.00 32 1007.5
20260504224740 64 242 8.0 17.0 0.00 0.00 0.00 31 1007.5
20260504224428 64 264 9.0 17.0 0.00 0.00 0.00 31 1007.5
20260504224339 64 246 11.0 18.0 0.00 0.00 0.00 31 1007.4
20260504224226 64 300 10.0 18.0 0.00 0.00 0.00 31 1007.4
20260504224124 64 238 11.0 18.0 0.00 0.00 0.00 31 1007.5
20260504224026 64 245 10.0 18.0 0.00 0.00 0.00 31 1007.6
20260504223944 64 279 7.0 18.0 0.00 0.00 0.00 32 1007.5
20260504223829 64 228 8.0 18.0 0.00 0.00 0.00 32 1007.5
20260504223746 64 269 8.0 18.0 0.00 0.00 0.00 31 1007.5
20260504223638 64 286 10.0 20.0 0.00 0.00 0.00 32 1007.6
20260504223538 64 252 11.0 20.0 0.00 0.00 0.00 31 1007.5
20260504223417 64 271 11.0 20.0 0.00 0.00 0.00 31 1007.5
20260504223316 64 279 12.0 22.0 0.00 0.00 0.00 31 1007.4
20260504223314 64 271 11.0 22.0 0.00 0.00 0.00 31 1007.3
20260504223304 64 274 10.0 22.0 0.00 0.00 0.00 31 1007.4
20260504223205 64 281 11.0 22.0 0.00 0.00 0.00 31 1007.6
20260504222930 64 276 13.0 22.0 0.00 0.00 0.00 31 1007.6
20260504222827 64 275 12.0 26.0 0.00 0.00 0.00 31 1007.6
20260504222739 64 292 11.0 26.0 0.00 0.00 0.00 31 1007.6
20260504222636 64 265 12.0 26.0 0.00 0.00 0.00 32 1007.5
20260504222540 64 269 9.0 28.0 0.00 0.00 0.00 32 1007.4
20260504222423 64 259 8.0 28.0 0.00 0.00 0.00 32 1007.4
20260504222323 64 279 9.0 28.0 0.00 0.00 0.00 32 1007.5
20260504222240 64 221 9.0 28.0 0.00 0.00 0.00 32 1007.6
20260504222138 64 218 12.0 28.0 0.00 0.00 0.00 32 1007.4
20260504222024 64 240 15.0 28.0 0.00 0.00 0.00 32 1007.6
20260504221923 64 228 15.0 28.0 0.00 0.00 0.00 32 1007.4
20260504221838 64 246 17.0 28.0 0.00 0.00 0.00 32 1007.3
20260504221755 64 281 15.0 28.0 0.00 0.00 0.00 31 1007.2
20260504221748 64 281 12.0 19.0 0.00 0.00 0.00 31 1007.1
20260504221727 64 275 12.0 18.0 0.00 0.00 0.00 31 1007.1
20260504221428 64 290 9.0 18.0 0.00 0.00 0.00 31 1007.0
20260504221334 64 253 7.0 17.0 0.00 0.00 0.00 31 1007.0
20260504221223 64 245 6.0 17.0 0.00 0.00 0.00 31 1007.1
20260504221120 64 128 6.0 17.0 0.00 0.00 0.00 31 1007.2
20260504221041 64 237 9.0 17.0 0.00 0.00 0.00 31 1007.2
20260504220945 64 254 10.0 22.0 0.00 0.00 0.00 31 1007.0
20260504220825 64 248 10.0 22.0 0.00 0.00 0.00 31 1007.2
20260504220739 64 240 10.0 22.0 0.00 0.00 0.00 31 1007.0
20260504220644 64 285 9.0 22.0 0.00 0.00 0.00 31 1007.1
20260504220535 64 196 9.0 22.0 0.00 0.00 0.00 31 1007.2
20260504220432 64 291 9.0 22.0 0.00 0.00 0.00 31 1007.2
20260504220327 64 254 8.0 22.0 0.00 0.00 0.00 31 1007.2
20260504220303 64 276 9.0 22.0 0.00 0.00 0.00 32 1007.1
20260504220250 64 232 10.0 22.0 0.00 0.00 0.00 31 1007.1
20260504220145 64 238 8.0 18.0 0.00 0.00 0.00 32 1007.0
20260504215920 64 279 7.0 18.0 0.00 0.00 0.00 32 1007.0
20260504215839 64 269 9.0 18.0 0.00 0.00 0.00 32 1007.0
20260504215720 64 225 10.0 18.0 0.00 0.00 0.00 31 1007.0
20260504215633 64 302 8.0 21.0 0.00 0.00 0.00 32 1007.0
20260504215530 64 214 8.0 24.0 0.00 0.00 0.00 32 1007.0
20260504215431 64 229 10.0 24.0 0.00 0.00 0.00 31 1006.9
20260504215333 65 264 9.0 24.0 0.00 0.00 0.00 31 1006.8
20260504215221 65 232 9.0 24.0 0.00 0.00 0.00 31 1006.7
20260504215121 65 250 12.0 24.0 0.00 0.00 0.00 31 1006.6
20260504215034 65 309 12.0 24.0 0.00 0.00 0.00 31 1006.7
20260504214930 65 242 13.0 24.0 0.00 0.00 0.00 31 1006.7
20260504214819 65 269 13.0 24.0 0.00 0.00 0.00 30 1006.7
20260504214754 65 284 13.0 24.0 0.00 0.00 0.00 30 1006.6
20260504214745 65 227 12.0 23.0 0.00 0.00 0.00 30 1006.5
20260504214729 66 237 10.0 23.0 0.00 0.00 0.00 29 1006.4
20260504214435 66 234 11.0 23.0 0.00 0.00 0.00 29 1006.5
20260504214326 66 256 14.0 23.0 0.00 0.00 0.00 28 1006.4
20260504214240 67 261 15.0 23.0 0.00 0.00 0.00 27 1006.5
20260504214132 67 271 12.0 23.0 0.00 0.00 0.00 24 1006.5
20260504214023 67 273 9.0 20.0 0.00 0.00 0.00 24 1006.7
20260504213916 67 293 8.0 16.0 0.00 0.00 0.00 24 1006.5
20260504213837 67 329 9.0 16.0 0.00 0.00 0.00 24 1006.3
20260504213729 67 250 9.0 16.0 0.00 0.00 0.00 24 1006.2
20260504213633 67 323 7.0 16.0 0.00 0.00 0.00 24 1006.1
20260504213521 67 329 6.0 16.0 0.00 0.00 0.00 24 1006.2
20260504213429 67 246 4.0 16.0 0.00 0.00 0.00 24 1006.2
20260504213335 67 290 6.0 16.0 0.00 0.00 0.00 24 1006.2
20260504213247 67 284 9.0 16.0 0.00 0.00 0.00 24 1006.2
20260504213245 67 281 9.0 16.0 0.00 0.00 0.00 24 1006.2
20260504213216 67 269 9.0 16.0 0.00 0.00 0.00 24 1006.3
20260504212928 67 260 8.0 16.0 0.00 0.00 0.00 24 1006.4
20260504212840 67 277 6.0 16.0 0.00 0.00 0.00 24 1006.5
20260504212732 67 277 5.0 16.0 0.00 0.00 0.00 24 1006.4
20260504212624 67 352 6.0 16.0 0.00 0.00 0.00 24 1006.5
20260504212520 67 235 5.0 16.0 0.00 0.00 0.00 24 1006.5
20260504212444 67 217 5.0 16.0 0.00 0.00 0.00 24 1006.6
20260504212336 67 284 6.0 16.0 0.00 0.00 0.00 24 1006.6
20260504212239 67 276 8.0 16.0 0.00 0.00 0.00 24 1006.7
20260504212140 67 328 7.0 17.0 0.00 0.00 0.00 24 1006.5
20260504212034 67 266 5.0 17.0 0.00 0.00 0.00 24 1006.7
20260504211936 67 13 6.0 17.0 0.00 0.00 0.00 24 1006.6
20260504211839 67 266 6.0 17.0 0.00 0.00 0.00 24 1006.7
20260504211753 67 296 6.0 17.0 0.00 0.00 0.00 24 1006.7
20260504211743 67 269 5.0 18.0 0.00 0.00 0.00 24 1006.7
20260504211726 67 274 4.0 18.0 0.00 0.00 0.00 25 1006.7
20260504211444 67 295 7.0 18.0 0.00 0.00 0.00 24 1006.8
20260504211339 67 263 8.0 18.0 0.00 0.00 0.00 24 1006.7
20260504211245 67 279 6.0 18.0 0.00 0.00 0.00 24 1006.8
20260504211118 67 309 5.0 18.0 0.00 0.00 0.00 24 1006.9
20260504211031 67 265 7.0 18.0 0.00 0.00 0.00 24 1006.9
20260504210937 67 283 9.0 18.0 0.00 0.00 0.00 24 1006.9
20260504210844 67 281 11.0 18.0 0.00 0.00 0.00 24 1006.9
20260504210741 67 285 8.0 18.0 0.00 0.00 0.00 23 1006.8
20260504210640 67 302 6.0 12.0 0.00 0.00 0.00 25 1006.9
20260504210540 67 271 6.0 13.0 0.00 0.00 0.00 25 1006.9
20260504210443 67 294 4.0 14.0 0.00 0.00 0.00 25 1006.9
20260504210318 67 330 4.0 14.0 0.00 0.00 0.00 25 1006.9
20260504210314 67 313 4.0 14.0 0.00 0.00 0.00 25 1007.0
20260504210310 67 277 4.0 14.0 0.00 0.00 0.00 25 1007.0
20260504210237 67 340 6.0 14.0 0.00 0.00 0.00 25 1007.0
20260504205923 67 274 9.0 14.0 0.00 0.00 0.00 25 1007.0
20260504205840 67 273 9.0 14.0 0.00 0.00 0.00 24 1007.0
20260504205723 67 297 9.0 16.0 0.00 0.00 0.00 25 1007.1
20260504205640 67 287 10.0 16.0 0.00 0.00 0.00 24 1007.1
20260504205522 67 294 10.0 16.0 0.00 0.00 0.00 25 1007.1
20260504205428 68 286 9.0 16.0 0.00 0.00 0.00 25 1007.1
20260504205316 68 273 8.0 20.0 0.00 0.00 0.00 24 1007.0
20260504205222 68 296 6.0 20.0 0.00 0.00 0.00 24 1007.1
20260504205121 68 5 7.0 20.0 0.00 0.00 0.00 24 1007.1
20260504205027 68 260 10.0 20.0 0.00 0.00 0.00 24 1007.0
20260504204923 68 263 9.0 20.0 0.00 0.00 0.00 25 1007.1
20260504204824 68 264 9.0 20.0 0.00 0.00 0.00 25 1007.1
20260504204755 68 288 11.0 20.0 0.00 0.00 0.00 25 1007.0
20260504204741 68 269 13.0 20.0 0.00 0.00 0.00 25 1006.9
20260504204650 68 300 12.0 19.0 0.00 0.00 0.00 25 1006.8
20260504204441 68 283 9.0 15.0 0.00 0.00 0.00 25 1006.9
20260504204337 68 238 8.0 18.0 0.00 0.00 0.00 25 1007.2
20260504204242 68 273 10.0 19.0 0.00 0.00 0.00 26 1007.1
20260504204146 67 225 8.0 19.0 0.00 0.00 0.00 25 1007.1
20260504204027 67 292 7.0 19.0 0.00 0.00 0.00 26 1007.1
20260504203941 67 184 9.0 19.0 0.00 0.00 0.00 26 1007.1
20260504203827 67 282 11.0 19.0 0.00 0.00 0.00 26 1007.0
20260504203744 67 299 11.0 19.0 0.00 0.00 0.00 25 1007.2
20260504203623 67 232 11.0 19.0 0.00 0.00 0.00 25 1007.2
20260504203530 67 267 11.0 19.0 0.00 0.00 0.00 26 1007.3
20260504203433 67 234 10.0 19.0 0.00 0.00 0.00 26 1007.2
20260504203315 67 297 7.0 16.0 0.00 0.00 0.00 26 1007.2
20260504203310 67 231 7.0 16.0 0.00 0.00 0.00 26 1007.2
20260504203305 67 262 6.0 16.0 0.00 0.00 0.00 26 1007.1
20260504203231 67 265 7.0 16.0 0.00 0.00 0.00 26 1007.2
20260504202929 67 269 9.0 16.0 0.00 0.00 0.00 26 1007.1
20260504202846 67 244 9.0 16.0 0.00 0.00 0.00 26 1007.1
20260504202726 67 228 10.0 16.0 0.00 0.00 0.00 26 1007.0
20260504202617 67 290 10.0 16.0 0.00 0.00 0.00 26 1007.1
20260504202524 67 257 9.0 16.0 0.00 0.00 0.00 26 1007.0
20260504202432 67 291 7.0 16.0 0.00 0.00 0.00 26 1007.1
20260504202319 67 250 8.0 19.0 0.00 0.00 0.00 26 1007.1
20260504202219 67 280 9.0 19.0 0.00 0.00 0.00 25 1007.2
20260504202123 67 280 7.0 19.0 0.00 0.00 0.00 25 1007.2
20260504202036 67 240 7.0 19.0 0.00 0.00 0.00 26 1007.2
20260504201931 67 201 7.0 19.0 0.00 0.00 0.00 25 1007.3
20260504201816 67 238 5.0 19.0 0.00 0.00 0.00 25 1007.4
20260504201803 66 297 7.0 19.0 0.00 0.00 0.00 25 1007.4
20260504201758 66 286 11.0 19.0 0.00 0.00 0.00 25 1007.4
20260504201736 66 273 10.0 19.0 0.00 0.00 0.00 25 1007.4
20260504201421 66 252 8.0 24.0 0.00 0.00 0.00 25 1007.4
20260504201330 66 232 10.0 24.0 0.00 0.00 0.00 25 1007.4
20260504201233 66 275 12.0 24.0 0.00 0.00 0.00 25 1007.4
20260504201134 66 285 10.0 24.0 0.00 0.00 0.00 25 1007.3
20260504201024 66 288 7.0 24.0 0.00 0.00 0.00 25 1007.2
20260504200937 66 209 7.0 24.0 0.00 0.00 0.00 25 1007.2
20260504200843 66 306 10.0 24.0 0.00 0.00 0.00 25 1007.2
20260504200721 66 316 16.0 24.0 0.00 0.00 0.00 25 1007.3
20260504200641 65 272 17.0 24.0 0.00 0.00 0.00 25 1007.2
20260504200531 65 247 11.0 23.0 0.00 0.00 0.00 26 1007.1
20260504200424 65 305 9.0 20.0 0.00 0.00 0.00 27 1007.2
20260504200317 65 295 14.0 20.0 0.00 0.00 0.00 27 1007.2
20260504200310 65 259 13.0 20.0 0.00 0.00 0.00 27 1007.3
20260504200224 65 279 11.0 21.0 0.00 0.00 0.00 28 1007.2
20260504195944 65 269 10.0 21.0 0.00 0.00 0.00 27 1007.4
20260504195826 65 295 11.0 21.0 0.00 0.00 0.00 28 1007.3
20260504195721 65 242 11.0 21.0 0.00 0.00 0.00 28 1007.4
20260504195640 65 308 12.0 21.0 0.00 0.00 0.00 27 1007.4
20260504195532 65 292 13.0 21.0 0.00 0.00 0.00 28 1007.5
20260504195427 65 238 13.0 21.0 0.00 0.00 0.00 28 1007.6
20260504195333 65 242 14.0 21.0 0.00 0.00 0.00 28 1007.5
20260504195233 65 283 13.0 21.0 0.00 0.00 0.00 28 1007.6
20260504195140 65 259 13.0 21.0 0.00 0.00 0.00 28 1007.6
20260504195027 65 227 11.0 18.0 0.00 0.00 0.00 28 1007.5
20260504194944 65 243 12.0 18.0 0.00 0.00 0.00 28 1007.7
20260504194838 65 252 14.0 18.0 0.00 0.00 0.00 28 1007.7
20260504194743 65 271 11.0 17.0 0.00 0.00 0.00 28 1007.6
20260504194736 65 268 9.0 16.0 0.00 0.00 0.00 29 1007.7
20260504194656 65 286 9.0 16.0 0.00 0.00 0.00 28 1007.9
20260504194436 65 261 10.0 16.0 0.00 0.00 0.00 28 1007.9
20260504194338 65 269 9.0 16.0 0.00 0.00 0.00 28 1008.0
20260504194239 65 262 8.0 16.0 0.00 0.00 0.00 28 1007.9
20260504194141 65 225 9.0 16.0 0.00 0.00 0.00 28 1008.0
20260504194042 65 251 9.0 16.0 0.00 0.00 0.00 28 1008.1
20260504193923 65 252 9.0 16.0 0.00 0.00 0.00 28 1008.2
20260504193823 65 257 8.0 16.0 0.00 0.00 0.00 28 1008.3
20260504193743 65 217 6.0 17.0 0.00 0.00 0.00 29 1008.0
20260504193617 65 239 3.0 9.0 0.00 0.00 0.00 28 1008.2
20260504193542 65 148 3.0 10.0 0.00 0.00 0.00 29 1008.3
20260504193434 65 178 3.0 10.0 0.00 0.00 0.00 29 1008.3
20260504193340 65 74 3.0 10.0 0.00 0.00 0.00 28 1008.3
20260504193256 65 57 4.0 10.0 0.00 0.00 0.00 28 1008.4
20260504193239 65 26 3.0 10.0 0.00 0.00 0.00 28 1008.4
20260504193149 65 112 2.0 11.0 0.00 0.00 0.00 27 1008.4
20260504192944 65 333 1.0 13.0 0.00 0.00 0.00 28 1008.5
20260504192829 65 286 3.0 14.0 0.00 0.00 0.00 28 1008.4
20260504192731 65 96 4.0 14.0 0.00 0.00 0.00 28 1008.5
20260504192645 65 30 2.0 14.0 0.00 0.00 0.00 28 1008.4
20260504192532 65 355 3.0 14.0 0.00 0.00 0.00 28 1008.3
20260504192440 65 285 3.0 14.0 0.00 0.00 0.00 28 1008.3
20260504192342 66 13 3.0 14.0 0.00 0.00 0.00 29 1008.3
20260504192230 66 327 5.0 14.0 0.00 0.00 0.00 29 1008.4
20260504192132 66 63 9.0 14.0 0.00 0.00 0.00 28 1008.5
20260504192025 66 104 9.0 14.0 0.00 0.00 0.00 28 1008.6
20260504191928 67 140 7.0 13.0 0.00 0.00 0.00 27 1008.4
20260504191840 67 90 8.0 13.0 0.00 0.00 0.00 26 1008.2
20260504191741 67 148 7.0 13.0 0.00 0.00 0.00 25 1008.0
20260504191717 67 146 5.0 13.0 0.00 0.00 0.00 24 1008.0
20260504191437 67 120 5.0 13.0 0.00 0.00 0.00 24 1007.8
20260504191318 68 180 7.0 13.0 0.00 0.00 0.00 23 1007.7
20260504191226 68 119 6.0 13.0 0.00 0.00 0.00 23 1007.7
20260504191132 68 134 7.0 13.0 0.00 0.00 0.00 23 1007.7
20260504191025 68 104 8.0 13.0 0.00 0.00 0.00 23 1007.6
20260504190927 68 99 5.0 13.0 0.00 0.00 0.00 23 1007.6
20260504190842 69 130 3.0 8.0 0.00 0.00 0.00 22 1007.6
20260504190738 69 55 2.0 8.0 0.00 0.00 0.00 22 1007.6
20260504190627 69 17 2.0 8.0 0.00 0.00 0.00 22 1007.5
20260504190529 69 329 2.0 8.0 0.00 0.00 0.00 22 1007.4
20260504190417 69 315 2.0 8.0 0.00 0.00 0.00 22 1007.4
20260504190321 69 88 3.0 8.0 0.00 0.00 0.00 21 1007.6
20260504190302 69 81 5.0 8.0 0.00 0.00 0.00 21 1007.5
20260504190254 69 82 5.0 8.0 0.00 0.00 0.00 21 1007.5
20260504190221 69 117 4.0 8.0 0.00 0.00 0.00 21 1007.5
20260504185940 69 123 4.0 7.0 0.00 0.00 0.00 21 1007.6
20260504185846 69 127 4.0 7.0 0.00 0.00 0.00 21 1007.4
20260504185737 69 157 4.0 7.0 0.00 0.00 0.00 21 1007.4
20260504185631 69 151 3.0 7.0 0.00 0.00 0.00 21 1007.4
20260504185528 69 146 1.0 10.0 0.00 0.00 0.00 20 1007.4
20260504185434 69 194 0.0 10.0 0.00 0.00 0.00 20 1007.4
20260504185317 69 279 0.0 11.0 0.00 0.00 0.00 20 1007.4
20260504185220 69 218 1.0 11.0 0.00 0.00 0.00 20 1007.3
20260504185127 69 215 3.0 11.0 0.00 0.00 0.00 20 1007.3
20260504185026 69 224 4.0 11.0 0.00 0.00 0.00 21 1007.3
20260504184937 69 291 4.0 11.0 0.00 0.00 0.00 21 1007.2
20260504184820 69 305 4.0 11.0 0.00 0.00 0.00 21 1007.2
20260504184740 69 296 5.0 11.0 0.00 0.00 0.00 21 1007.1
20260504184737 69 284 7.0 11.0 0.00 0.00 0.00 21 1007.1
20260504184723 69 271 7.0 11.0 0.00 0.00 0.00 20 1007.1
20260504184431 69 297 6.0 10.0 0.00 0.00 0.00 20 1007.0
20260504184320 69 283 6.0 10.0 0.00 0.00 0.00 19 1006.9
20260504184246 69 288 6.0 10.0 0.00 0.00 0.00 20 1006.9
20260504184127 69 298 6.0 10.0 0.00 0.00 0.00 20 1006.9
20260504184042 69 270 6.0 10.0 0.00 0.00 0.00 22 1007.0
20260504183927 69 296 4.0 11.0 0.00 0.00 0.00 22 1006.9
20260504183835 69 262 4.0 11.0 0.00 0.00 0.00 22 1006.9
20260504183742 69 243 4.0 11.0 0.00 0.00 0.00 22 1007.0
20260504183630 69 221 4.0 11.0 0.00 0.00 0.00 22 1007.0
20260504183520 69 214 3.0 15.0 0.00 0.00 0.00 22 1006.9
20260504183436 69 211 4.0 15.0 0.00 0.00 0.00 23 1006.9
20260504183319 69 205 5.0 15.0 0.00 0.00 0.00 22 1007.0
20260504183232 69 273 6.0 15.0 0.00 0.00 0.00 23 1007.0
20260504183223 69 269 5.0 15.0 0.00 0.00 0.00 22 1007.1
20260504183203 69 283 7.0 15.0 0.00 0.00 0.00 22 1007.2
20260504182939 69 285 7.0 15.0 0.00 0.00 0.00 21 1007.1
20260504182836 69 280 7.0 15.0 0.00 0.00 0.00 22 1007.2
20260504182720 70 234 9.0 15.0 0.00 0.00 0.00 21 1007.1
20260504182621 70 252 8.0 15.0 0.00 0.00 0.00 22 1007.1
20260504182538 70 227 6.0 15.0 0.00 0.00 0.00 22 1007.2
20260504182443 70 236 5.0 15.0 0.00 0.00 0.00 23 1007.1
20260504182323 70 226 5.0 15.0 0.00 0.00 0.00 22 1007.0
20260504182238 70 285 7.0 15.0 0.00 0.00 0.00 22 1007.0
20260504182141 70 291 10.0 15.0 0.00 0.00 0.00 21 1007.1
20260504182035 70 302 10.0 15.0 0.00 0.00 0.00 21 1007.1
20260504181940 70 262 10.0 15.0 0.00 0.00 0.00 22 1007.1
20260504181827 70 263 6.0 13.0 0.00 0.00 0.00 22 1007.0
20260504181743 70 303 3.0 10.0 0.00 0.00 0.00 22 1007.0
20260504181733 70 236 5.0 10.0 0.00 0.00 0.00 22 1007.1
20260504181643 70 258 7.0 10.0 0.00 0.00 0.00 22 1007.1
20260504181441 70 263 6.0 10.0 0.00 0.00 0.00 23 1007.1
20260504181335 70 293 5.0 12.0 0.00 0.00 0.00 23 1007.1
20260504181242 70 284 4.0 12.0 0.00 0.00 0.00 22 1007.3
20260504181125 70 286 4.0 12.0 0.00 0.00 0.00 22 1007.2
20260504181027 70 266 6.0 12.0 0.00 0.00 0.00 22 1007.4
20260504180933 70 292 6.0 12.0 0.00 0.00 0.00 23 1007.2
20260504180824 70 294 5.0 12.0 0.00 0.00 0.00 23 1007.4
20260504180736 70 5 5.0 12.0 0.00 0.00 0.00 23 1007.4
20260504180631 70 291 7.0 12.0 0.00 0.00 0.00 22 1007.3
20260504180535 70 294 7.0 12.0 0.00 0.00 0.00 22 1007.3
20260504180442 70 333 6.0 9.0 0.00 0.00 0.00 22 1007.4
20260504180336 70 309 5.0 9.0 0.00 0.00 0.00 23 1007.4
20260504180304 70 277 5.0 9.0 0.00 0.00 0.00 22 1007.4
20260504180256 70 280 3.0 10.0 0.00 0.00 0.00 24 1007.4
20260504180224 70 142 2.0 10.0 0.00 0.00 0.00 23 1007.5
20260504175937 70 252 3.0 10.0 0.00 0.00 0.00 24 1007.4
20260504175843 69 190 2.0 10.0 0.00 0.00 0.00 24 1007.4
20260504175734 69 202 2.0 10.0 0.00 0.00 0.00 23 1007.4
20260504175629 69 70 2.0 10.0 0.00 0.00 0.00 23 1007.5
20260504175537 69 147 3.0 10.0 0.00 0.00 0.00 24 1007.4
20260504175431 69 150 5.0 10.0 0.00 0.00 0.00 23 1007.4
20260504175343 69 182 7.0 10.0 0.00 0.00 0.00 23 1007.4
20260504175218 69 153 6.0 11.0 0.00 0.00 0.00 23 1007.5
20260504175127 70 152 5.0 9.0 0.00 0.00 0.00 22 1007.5
20260504175042 70 167 4.0 9.0 0.00 0.00 0.00 23 1007.6
20260504174942 70 160 3.0 9.0 0.00 0.00 0.00 23 1007.6
20260504174837 70 247 4.0 9.0 0.00 0.00 0.00 23 1007.6
20260504174751 70 143 5.0 9.0 0.00 0.00 0.00 23 1007.6
20260504174743 70 313 4.0 9.0 0.00 0.00 0.00 23 1007.7
20260504174723 70 257 4.0 9.0 0.00 0.00 0.00 23 1007.7
20260504174431 69 221 4.0 13.0 0.00 0.00 0.00 23 1007.7
20260504174327 69 283 3.0 14.0 0.00 0.00 0.00 23 1007.7
20260504174225 69 295 1.0 14.0 0.00 0.00 0.00 22 1007.7
20260504174118 69 252 2.0 14.0 0.00 0.00 0.00 22 1007.7
20260504174022 69 261 4.0 14.0 0.00 0.00 0.00 22 1007.7
20260504173921 69 297 6.0 14.0 0.00 0.00 0.00 22 1007.8
20260504173837 69 275 7.0 14.0 0.00 0.00 0.00 22 1007.9
20260504173716 69 211 7.0 14.0 0.00 0.00 0.00 22 1007.9
20260504173632 70 283 9.0 14.0 0.00 0.00 0.00 22 1007.9
20260504173519 70 283 9.0 14.0 0.00 0.00 0.00 22 1007.8
20260504173432 70 292 6.0 13.0 0.00 0.00 0.00 22 1007.9
20260504173324 69 285 5.0 13.0 0.00 0.00 0.00 23 1007.9
20260504173254 69 274 6.0 14.0 0.00 0.00 0.00 22 1007.9
20260504173242 69 258 5.0 14.0 0.00 0.00 0.00 23 1007.9
20260504173202 69 200 6.0 14.0 0.00 0.00 0.00 23 1008.0
20260504172928 69 299 6.0 14.0 0.00 0.00 0.00 22 1008.0
20260504172842 69 277 3.0 14.0 0.00 0.00 0.00 23 1007.9
20260504172719 69 224 5.0 14.0 0.00 0.00 0.00 23 1008.0
20260504172624 69 226 8.0 14.0 0.00 0.00 0.00 23 1008.0
20260504172524 69 290 9.0 14.0 0.00 0.00 0.00 22 1007.9
20260504172421 69 284 10.0 13.0 0.00 0.00 0.00 22 1007.9
20260504172334 69 251 8.0 14.0 0.00 0.00 0.00 22 1007.9
20260504172228 69 258 5.0 13.0 0.00 0.00 0.00 23 1007.9
20260504172123 69 200 4.0 13.0 0.00 0.00 0.00 22 1007.9
20260504172041 69 223 4.0 13.0 0.00 0.00 0.00 22 1007.9
20260504171919 69 148 5.0 13.0 0.00 0.00 0.00 22 1008.0
20260504171843 69 171 6.0 13.0 0.00 0.00 0.00 22 1008.0
20260504171725 69 186 7.0 13.0 0.00 0.00 0.00 21 1008.0
20260504171722 70 195 7.0 14.0 0.00 0.00 0.00 21 1008.1
20260504171713 70 198 7.0 11.0 0.00 0.00 0.00 22 1008.1
20260504171428 70 184 7.0 11.0 0.00 0.00 0.00 21 1008.0
20260504171343 69 241 6.0 10.0 0.00 0.00 0.00 22 1007.9
20260504171223 69 270 5.0 8.0 0.00 0.00 0.00 23 1007.9
20260504171144 69 178 2.0 18.0 0.00 0.00 0.00 24 1007.9
20260504171037 69 241 1.0 18.0 0.00 0.00 0.00 24 1007.9
20260504170921 69 289 1.0 18.0 0.00 0.00 0.00 23 1007.9
20260504170831 69 298 2.0 18.0 0.00 0.00 0.00 23 1007.9
20260504170739 69 230 4.0 18.0 0.00 0.00 0.00 23 1008.0
20260504170642 69 232 5.0 18.0 0.00 0.00 0.00 23 1008.1
20260504170524 69 221 5.0 18.0 0.00 0.00 0.00 23 1008.0
20260504170431 69 184 7.0 18.0 0.00 0.00 0.00 23 1008.0
20260504170333 69 153 10.0 18.0 0.00 0.00 0.00 22 1008.0
20260504170257 69 171 9.0 12.0 0.00 0.00 0.00 23 1007.9
20260504170226 69 179 7.0 12.0 0.00 0.00 0.00 23 1007.9
20260504160424 66 215 5.0 9.0 0.00 0.00 0.00 24 1008.6
20260504160342 66 203 4.0 11.0 0.00 0.00 0.00 24 1008.6
20260504160258 66 201 5.0 11.0 0.00 0.00 0.00 25 1008.6
20260504160253 66 202 5.0 11.0 0.00 0.00 0.00 25 1008.6
20260504160219 66 140 4.0 11.0 0.00 0.00 0.00 24 1008.6
20260504151120 63 116 2.0 4.0 0.00 0.00 0.00 27 1009.1
20260504151022 63 159 1.0 4.0 0.00 0.00 0.00 28 1009.1
20260504150940 63 115 1.0 4.0 0.00 0.00 0.00 27 1009.2
20260504150829 63 115 1.0 4.0 0.00 0.00 0.00 27 1009.1
20260504150730 62 81 2.0 4.0 0.00 0.00 0.00 27 1009.1
20260504150633 62 61 2.0 5.0 0.00 0.00 0.00 27 1009.1
20260504150537 62 85 1.0 5.0 0.00 0.00 0.00 27 1009.1
20260504150430 62 103 1.0 5.0 0.00 0.00 0.00 28 1009.0
20260504150340 62 76 1.0 5.0 0.00 0.00 0.00 27 1009.1
20260504150244 62 91 2.0 7.0 0.00 0.00 0.00 27 1009.1
20260504150237 62 79 1.0 7.0 0.00 0.00 0.00 27 1009.1
20260504141224 55 79 1.0 8.0 0.00 0.00 0.00 37 1009.1
20260504141122 55 63 1.0 8.0 0.00 0.00 0.00 37 1009.0
20260504141026 55 73 1.0 8.0 0.00 0.00 0.00 37 1009.1
20260504140942 55 82 1.0 8.0 0.00 0.00 0.00 37 1009.0
20260504140824 55 82 2.0 8.0 0.00 0.00 0.00 37 1009.0
20260504140739 55 101 3.0 8.0 0.00 0.00 0.00 37 1009.0
20260504140637 54 107 4.0 8.0 0.00 0.00 0.00 37 1008.9
20260504140522 54 110 4.0 8.0 0.00 0.00 0.00 37 1009.0
20260504140441 54 83 4.0 8.0 0.00 0.00 0.00 37 1009.0
20260504140320 54 71 2.0 7.0 0.00 0.00 0.00 38 1009.0
20260504140256 54 44 1.0 4.0 0.00 0.00 0.00 38 1009.0
20260504140244 54 88 1.0 4.0 0.00 0.00 0.00 38 1008.9